rotation,crop,Date,soil water storage in the profile(0-180cm),Precipitation,Irrigation,pan ET,unite (mm),Comments
SpCSpWS rotation,summer maize,2006.07.01,295.3233412,32.7,75,185.2,,"Soil water content was measured by neutron probe. Precipitation, irrigation and Pan ET was the sum between intervals"
SpCSpWS rotation,summer maize,2006.07.25,296.4652798,134.6,0,127.7,,
SpCSpWS rotation,summer maize,2006.08.05,399.8711778,30.8,0,38.9,,
SpCSpWS rotation,summer maize,2006.08.15,399.1845639,78.5,0,36.8,,
SpCSpWS rotation,summer maize,2006.08.25,407.3087032,20.6,30,30.9,,
SpCSpWS rotation,summer maize,2006.09.05,401.9288478,50,0,29.5,,
SpCSpWS rotation,summer maize,2006.09.14,382.3744382,0,0,39.3,,
SpCSpWS rotation,summer maize,2006.09.23,352.4051288,0,0,28.1,,
SpCSpWS rotation,summer maize,2006.10.04,354.8662421,0,0,48.2,,
SpCSpWS rotation,summer maize,2010.06.19,422.6671188,2.3,0,80.5,,
SpCSpWS rotation,summer maize,2010.06.28,428.9558316,0,0,98.9,,
SpCSpWS rotation,summer maize,2010.07.09,415.8301345,35.8,0,102.8,,
SpCSpWS rotation,summer maize,2010.07.18,372.3752409,5.2,75,43.6,,
SpCSpWS rotation,summer maize,2010.07.28,450.6268724,1.3,0,61.3,,
SpCSpWS rotation,summer maize,2010.08.15,452.4340977,49.1,0,64,,
SpCSpWS rotation,summer maize,2010.08.28,446.6768175,125.9,30,40,,
SpCSpWS rotation,summer maize,2010.09.11,405.6751223,35.5,0,45.8,,
SpCSpWS rotation,summer maize,2010.09.23,495.4644275,33.4,0,31.6,,
WS rotation,summer maize,2003.07.17,401.2289862,35,75,204.83,,
WS rotation,summer maize,2003.08.17,434.211703,171.3,30,129.2,,
WS rotation,summer maize,2003.09.17,382.6720256,73.3,0,109.1,,
WS rotation,summer maize,2003.10.02,370.1448876,30.59,0,25.57142857,,
WS rotation,summer maize,2004.06.21,366.7939894,43.5,0,65.3,,
WS rotation,summer maize,2004.07.01,384.8703184,80.4,75,64.7,,
WS rotation,summer maize,2004.07.15,434.7192062,152,0,96.3,,
WS rotation,summer maize,2004.07.25,434.3990451,31,0,51.6,,
WS rotation,summer maize,2004.08.03,445.9822187,29.6,0,28.6,,
WS rotation,summer maize,2004.08.17,452.4114524,54.6,30,45.9,,
WS rotation,summer maize,2004.08.31,416.007886,5.6,0,29.8,,
WS rotation,summer maize,2004.09.11,392.7835676,2.6,0,36.7,,
WS rotation,summer maize,2004.09.21,384.5786413,31.4,0,36.4,,
WS rotation,summer maize,2004.10.02,355.8786394,5.4,0,27.8,,
WS rotation,summer maize,2005.06.24,285.455283,0,0,143.2,,
WS rotation,summer maize,2005.07.04,281.8107687,18.9,75,77.5,,
WS rotation,summer maize,2005.07.13,302.6254893,0,0,82.6,,
WS rotation,summer maize,2005.07.24,347.3182213,124.8,0,47.8,,
WS rotation,summer maize,2005.08.05,351.5007664,40.9,0,63.4,,
WS rotation,summer maize,2005.08.14,344.7762228,29.6,0,39.4,,
WS rotation,summer maize,2005.08.25,336.4258096,35.5,30,46.6,,
WS rotation,summer maize,2005.09.03,311.3732434,0,0,37.9,,
WS rotation,summer maize,2005.09.13,277.2138081,0,0,41.6,,
WS rotation,summer maize,2005.09.25,343.6149749,62.8,0,34.4,,
WS rotation,summer maize,2006.07.25,318.2942398,167.3,75,239,,
WS rotation,summer maize,2006.08.05,402.6265247,30.8,0,38.9,,
WS rotation,summer maize,2006.08.15,381.6400296,78.5,0,36.8,,
WS rotation,summer maize,2006.08.25,381.3716164,20.6,30,30.9,,
WS rotation,summer maize,2006.09.05,402.5946696,50,0,29.5,,
WS rotation,summer maize,2006.09.14,377.4932894,0,0,39.3,,
WS rotation,summer maize,2006.09.23,361.6630765,0,0,31.2,,
WS rotation,summer maize,2006.10.04,332.6323384,0,0,45.1,,
WS rotation,summer maize,2007.06.24,385.2314633,7.5,0,50.9,,
WS rotation,summer maize,2007.07.04,442.8286888,88.3,75,75.6,,
WS rotation,summer maize,2007.07.13,481.0481002,21.2,0,67,,
WS rotation,summer maize,2007.07.24,418.0628611,16.3,0,39.3,,
WS rotation,summer maize,2007.08.03,489.9579239,29.9,0,34.3,,
WS rotation,summer maize,2007.08.14,474.8590695,48.1,0,47.6,,
WS rotation,summer maize,2007.08.24,443.9179943,0,30,46.9,,
WS rotation,summer maize,2007.09.04,458.3696664,11.1,0,31.9,,
WS rotation,summer maize,2007.09.13,427.2639912,0,0,37.4,,
WS rotation,summer maize,2007.09.25,409.7465079,10,0,49.3,,
WS rotation,summer maize,2007.10.08,435.5281167,64,0,10.1,,
WS rotation,summer maize,2008.07.10,432.6596344,73,75,76.9,,
WS rotation,summer maize,2008.07.21,424.0770401,23.4,0,52.1,,
WS rotation,summer maize,2008.08.02,466.9092528,22.2,0,61.2,,
WS rotation,summer maize,2008.08.23,517.6929603,145.3,30,75.6,,
WS rotation,summer maize,2008.09.03,500.6003922,29.2,0,52.2,,
WS rotation,summer maize,2008.09.13,513.2309666,36.7,0,32.9,,
WS rotation,summer maize,2008.09.24,487.8113944,6.3,0,33.3,,
WS rotation,summer maize,2008.10.02,494.6666868,11.5,0,20.4,,
WS rotation,summer maize,2008.10.15,483.0476216,7.5,0,48,,
WS rotation,summer maize,2009.06.25,488.5225441,6.2,0,104.5,,
WS rotation,summer maize,2009.07.05,452.5971035,2.9,75,143.9,,
WS rotation,summer maize,2009.07.15,523.6849973,34,0,69,,
WS rotation,summer maize,2009.07.25,510.1556676,31.2,0,51.3,,
WS rotation,summer maize,2009.08.07,499.0204512,49.6,0,40.6,,
WS rotation,summer maize,2009.08.16,481.2557128,19.5,0,27.8,,
WS rotation,summer maize,2009.08.26,523.3066906,147.7,30,21.1,,
WS rotation,summer maize,2009.09.02,517.7346021,28.9,0,20.1,,
WS rotation,summer maize,2009.09.13,513.2789255,65.2,0,22.6,,
WS rotation,summer maize,2009.09.22,507.8718649,12.1,0,33.7,,
WS rotation,summer maize,2009.10.03,483.3747449,0,0,47.5,,
WS rotation,summer maize,2010.06.19,419.0604768,2.3,0,80.5,,
WS rotation,summer maize,2010.06.28,435.1508937,0,0,98.9,,
WS rotation,summer maize,2010.07.09,423.7220706,35.8,0,102.8,,
WS rotation,summer maize,2010.07.18,419.0471167,5.2,75,43.6,,
WS rotation,summer maize,2010.07.28,457.3120666,1.3,0,61.3,,
WS rotation,summer maize,2010.08.15,460.1242811,49.1,0,64,,
WS rotation,summer maize,2010.08.28,518.8027044,125.9,30,40,,
WS rotation,summer maize,2010.09.11,403.0452439,35.5,0,45.8,,
WS rotation,summer maize,2010.09.23,467.5963897,33.4,0,31.6,,
WS rotation,summer maize,2010.10.07,470.0896688,0.3,75,55.3,,
WS rotation,summer maize,2011.06.28,340.5939213,17.1,0,69,,
WS rotation,summer maize,2011.07.07,359.8247352,18.1,0,73,,
WS rotation,summer maize,2011.07.17,344.6094021,2.3,75,96.1,,
WS rotation,summer maize,2011.07.27,473.9328672,62.8,0,49.4,,
WS rotation,summer maize,2011.08.07,455.6371704,32.8,0,49.6,,
WS rotation,summer maize,2011.08.16,462.8441176,46.7,0,30.8,,
WS rotation,summer maize,2011.08.26,452.9315685,35.8,30,32.2,,
WS rotation,summer maize,2011.09.07,408.9696229,19.16666667,0,39.9,,
WS rotation,summer maize,2011.09.19,462.8641407,67.1,0,22.1,,
WS rotation,summer maize,2011.09.27,456.4868488,0,75,34.5,,
WS rotation,summer maize,2012.06.28,452.8110268,22.4,0,56.1,,
WS rotation,summer maize,2012.07.07,505.591588,110.3,0,62.5,,
WS rotation,summer maize,2012.07.17,491.8779073,33.2,75,53.1,,
WS rotation,summer maize,2012.07.28,503.1857693,60.1,0,47.1,,
WS rotation,summer maize,2012.08.08,485.1242253,44.4,0,38.1,,
WS rotation,summer maize,2012.08.17,501.6303264,103,0,28.3,,
WS rotation,summer maize,2012.08.27,476.4646316,18.6,30,43.7,,
WS rotation,summer maize,2012.09.07,503.8998181,69.9,0,38.7,,
WS rotation,summer maize,2012.09.17,481.2373334,0.6,0,48.3,,
WS rotation,summer maize,2012.09.28,461.0091755,12.7,0,43.3,,
WS rotation,summer maize,2012.10.09,444.1127234,0.7,0,53.2,,
WS rotation,summer maize,2013.06.28 ,464.9236188,48.2,0,77.4,,
WS rotation,summer maize,2013.07.08,474.1650659,18,75,98.6,,
WS rotation,summer maize,2013.07.20,497.7338926,68.1,0,40.7,,
WS rotation,summer maize,2013.07.29,490.3469435,47.8,0,38.6,,
WS rotation,summer maize,2013.08.09,506.9905516,154.1,0,44.8,,
WS rotation,summer maize,2013.08.18,477.3174095,19.4,0,46.8,,
WS rotation,summer maize,2013.08.29,477.814082,0.2,30,65.8,,
WS rotation,summer maize,2013.09.09,476.8076865,23.9,0,48.3,,
WS rotation,summer maize,2013.10.06,483.5462488,38.2,0,71,,
PWS rotation,summer maize,2004.07.01,371.5106282,80.4,75,64.7,,
PWS rotation,summer maize,2004.07.15,426.8180801,152,0,96.3,,
PWS rotation,summer maize,2004.07.25,428.3120598,31,0,51.6,,
PWS rotation,summer maize,2004.08.03,443.3995443,29.6,0,28.6,,
PWS rotation,summer maize,2004.08.17,446.0744558,54.6,30,45.9,,
PWS rotation,summer maize,2004.08.31,414.3666712,11.2,0,29.8,,
PWS rotation,summer maize,2004.09.11,381.9326548,2.6,0,44,,
PWS rotation,summer maize,2004.09.21,386.5239639,31.4,0,36.4,,
PWS rotation,summer maize,2004.10.02,371.0460975,5.4,0,27.8,,
PWS rotation,summer maize,2006.07.25,316.7378131,167.3,75,312.9,,
PWS rotation,summer maize,2006.08.05,366.0884678,30.8,0,38.9,,
PWS rotation,summer maize,2006.08.15,367.2607928,78.5,0,36.8,,
PWS rotation,summer maize,2006.08.25,374.7831778,20.6,30,30.9,,
PWS rotation,summer maize,2006.09.05,378.3799673,50,0,29.5,,
PWS rotation,summer maize,2006.09.14,370.4706477,0,0,39.3,,
PWS rotation,summer maize,2006.09.23,352.424211,0,0,31.2,,
PWS rotation,summer maize,2006.10.04,345.0912595,0,0,45.1,,
PWS rotation,summer maize,2008.07.10,432.2210302,73,75,76.9,,
PWS rotation,summer maize,2008.07.21,417.9187513,23.4,0,52.1,,
PWS rotation,summer maize,2008.08.02,471.6235545,22.2,0,61.2,,
PWS rotation,summer maize,2008.08.23,500.8972419,145.3,30,75.6,,
PWS rotation,summer maize,2008.09.03,492.8051886,29.2,0,52.2,,
PWS rotation,summer maize,2008.09.13,507.8120425,36.7,0,32.9,,
PWS rotation,summer maize,2008.09.24,486.7612587,6.3,0,33.3,,
PWS rotation,summer maize,2008.10.02,491.9432118,11.5,0,20.4,,
PWS rotation,summer maize,2010.06.28,387.8707991,0,0,98.9,,
PWS rotation,summer maize,2010.07.09,375.0036758,35.8,75,102.8,,
PWS rotation,summer maize,2010.07.18,373.1400718,5.2,0,43.6,,
PWS rotation,summer maize,2010.07.28,411.1024788,1.3,0,61.3,,
PWS rotation,summer maize,2010.08.15,406.2423224,49.1,0,64,,
PWS rotation,summer maize,2010.08.28,483.5401227,125.9,30,40,,
PWS rotation,summer maize,2010.09.11,399.079491,35.5,0,45.8,,
PWS rotation,summer maize,2010.09.23,453.2053581,33.4,0,31.6,,
PWS rotation,summer maize,2010.10.07,466.856745,0.3,0,55.3,,
PWS rotation,summer maize,2012.06.28,454.2562164,22.4,0,56.1,,
PWS rotation,summer maize,2012.07.07,500.8087353,110.3,75,62.5,,
PWS rotation,summer maize,2012.07.17,487.2071748,33.2,0,53.1,,
PWS rotation,summer maize,2012.07.28,503.5446696,60.1,0,47.1,,
PWS rotation,summer maize,2012.08.08,476.763614,44.4,0,38.1,,
PWS rotation,summer maize,2012.08.17,499.4706555,103,0,28.3,,
PWS rotation,summer maize,2012.08.27,472.2120714,18.6,30,43.7,,
PWS rotation,summer maize,2012.09.07,494.8203553,69.9,0,38.7,,
PWS rotation,summer maize,2012.09.17,483.9264475,0.6,0,48.3,,
PWS rotation,summer maize,2012.09.28,446.389408,12.7,0,43.3,,
RCPWS rotation,summer maize,2005.06.24,356.6452914,0,0,143.2,,
RCPWS rotation,summer maize,2005.07.04,260.2009398,18.9,75,77.5,,
RCPWS rotation,summer maize,2005.07.13,281.1690402,0,0,82.6,,
RCPWS rotation,summer maize,2005.07.24,317.8013838,124.8,0,47.8,,
RCPWS rotation,summer maize,2005.08.05,350.4845357,40.9,0,63.4,,
RCPWS rotation,summer maize,2005.08.14,337.1842943,29.6,0,39.4,,
RCPWS rotation,summer maize,2005.08.25,299.1257276,35.5,75,46.6,,
RCPWS rotation,summer maize,2005.09.03,326.183723,0,0,37.9,,
RCPWS rotation,summer maize,2005.09.13,278.4183905,0,0,41.6,,
RCPWS rotation,summer maize,2005.09.25,307.0729181,62.8,0,34.4,,
RCPWS rotation,summer maize,2005.10.04,316.3467849,6,0,21.9,,
RCPWS rotation,summer maize,2008.07.10,435.6583381,73,75,76.9,,
RCPWS rotation,summer maize,2008.07.21,429.0457083,23.4,0,52.1,,
RCPWS rotation,summer maize,2008.08.02,455.2876452,22.2,0,61.2,,
RCPWS rotation,summer maize,2008.08.23,498.4444022,145.3,30,75.6,,
RCPWS rotation,summer maize,2008.09.03,495.2906633,29.2,0,52.2,,
RCPWS rotation,summer maize,2008.09.13,501.2234874,36.7,0,32.9,,
RCPWS rotation,summer maize,2008.09.24,482.081855,6.3,0,33.3,,
RCPWS rotation,summer maize,2008.10.02,489.0351102,11.5,0,20.4,,
RCPWS rotation,summer maize,2008.10.15,476.7486834,7.5,0,48,,
RCPWS rotation,summer maize,2011.06.28,382.2816451,17.1,75,78.3,,
RCPWS rotation,summer maize,2011.07.07,382.4725305,18.1,0,63.7,,
RCPWS rotation,summer maize,2011.07.17,374.9938428,2.3,0,96.1,,
RCPWS rotation,summer maize,2011.07.27,460.1822525,62.8,0,49.4,,
RCPWS rotation,summer maize,2011.08.07,451.4023383,32.8,0,49.6,,
RCPWS rotation,summer maize,2011.08.16,463.1549225,46.7,0,30.8,,
RCPWS rotation,summer maize,2011.08.26,461.6150252,35.6,75,32.2,,
RCPWS rotation,summer maize,2011.09.07,407.8490247,19.16666667,0,39.9,,
RCPWS rotation,summer maize,2011.09.19,450.7508207,67.1,0,22.1,,
RCPWS rotation,summer maize,2011.09.27,432.7587246,0,0,34.5,,
